Preview of NWS' New Version of Forecast
This preview is not operational and should not be used for support decisions.

Regional Weather Roundup (RWR)

Issued by National Weather Service (NWS)

                            
000
ASUS42 KTBW 181217
RWRFL 
FLORIDA REGIONAL WEATHER ROUNDUP
NATIONAL WEATHER SERVICE TAMPA BAY RUSKIN FL
700 AM EST MON FEB 18 2019

NOTE: "FAIR" INDICATES FEW OR NO CLOUDS BELOW 12,000 FEET WITH NO
SIGNIFICANT WEATHER AND/OR OBSTRUCTIONS TO VISIBILITY.

FLZ001>010-012>015-112-114-115-181300-
PANHANDLE FLORIDA
  
CITY           SKY/WX    TMP DP  RH WIND       PRES   REMARKS
PENSACOLA      CLOUDY    58  52  80 N21G29    30.03R                  
PENSACOLA NAS  CLOUDY    58  54  86 N14       30.02R                  
MILTON NAS     CLOUDY    55  53  93 VRB6      30.05                   
CRESTVIEW      CLOUDY    58  52  80 N9        30.06R                  
DUKE FIELD     CLOUDY    58  53  84 N15G21    30.04R                  
VALPARAISO     CLOUDY    59  55  88 N9G20     30.01R                  
MARY ESTHER    CLOUDY    59  54  85 N16       30.00R                  
PANAMA CITY    CLOUDY    62  60  93 NW7       29.99R                  
TYNDALL AFB    FOG       67  66  98 S8        29.98R VSB 1/8          
APALACHICOLA   CLOUDY    67  66  97 S6        29.98R FOG              

STATION/POSITION SKY/WX   TEMP    WIND        PRES    WAVE   SWELL
                          AIR SEA DIR/SP/G            HT/PER HT/PER
                          (F)     (DEG/KT/KT) (MB)    (FT/S) (FT/S)
30.1N   87.6W              59      10/ 23/ 27   N/A     4/ 7   3/ 7
29.2N   88.2W                      30/ 17/ 19 1015.4R   4/ 7   3/ 7
PANAMA CITY BEAC           62 63  360/ 10/ 15 1015.8R
TOWER C                    69     190/ 16/ 16 1015.6R

$$
FLZ011-016>038-118-127-128-134-139-239-181300-
NORTH FLORIDA
  
CITY           SKY/WX    TMP DP  RH WIND       PRES   REMARKS
MARIANNA       CLOUDY    61  58  90 N10       30.00R                  
TALLAHASSEE    CLOUDY    70  70 100 S3        29.99R                  
PERRY          MOCLDY    71  67  89 S8        30.01R                  
LIVE OAK       CLOUDY    68  68 100 CALM      30.01R                  
CROSS CITY     MOCLDY    70  67  91 S7        30.02R                  
LAKE CITY      MOCLDY    64  64 100 CALM      30.03R                  
GAINESVILLE    CLOUDY    70  65  84 S5        30.06R                  
WILLISTON        N/A    N/A N/A N/A MISG        N/A                   
PALATKA        CLOUDY   N/A N/A N/A S3        30.04S                  
MAYPORT NAS    MOCLDY    66  64  93 S8        30.03R                  
JACKSONVILLE   FAIR      69  65  86 SW8       30.01R                  
JAX NAS        FAIR      67  65  93 S5        30.04R                  
JAX CECIL      PTCLDY    66  64  94 S5        30.03R                  
FERNANDINA BEA FAIR      64  63  96 SW7       30.02R                  
ST AUGUSTINE   CLOUDY    68  64  87 S6        30.05R                  
PALM COAST     MOCLDY    64  63  94 CALM      30.05R                  

STATION/POSITION SKY/WX   TEMP    WIND        PRES    WAVE   SWELL
                          AIR SEA DIR/SP/G            HT/PER HT/PER
                          (F)     (DEG/KT/KT) (MB)    (FT/S) (FT/S)
SHELL POINT      NOT AVBL
KEATON BEACH               67     180/ 12/ 14 1016.4R
CEDAR KEY                  67     200/ 12/ 14 1016.4R
FERNANDINA                 66 59  180/  3/  6 1017.0R
30.7N   81.3W                 59                N/A     2/ 9
MAYPORT                    67 59  190/  6/  7 1016.7R
31.4N   80.9W              60 58  210/  8/ 10 1015.6R   2/ 5   2/ 5
ST AUGUSTINE               67 60  190/  6/  7 1017.5R

$$
FLZ040-043>046-052-053-057-058-063-144-181300-
INTERIOR CENTRAL FLORIDA
  
CITY           SKY/WX    TMP DP  RH WIND       PRES   REMARKS
OCALA          FAIR      66  64  93 S3        30.05R                  
LEESBURG       CLOUDY    67  64  90 CALM      30.06R                  
SANFORD        CLOUDY    68  65  90 S5        30.06R                  
ORLANDO EXEC   MOCLDY    68  65  90 S3        30.06R                  
ORLANDO INTL   MOCLDY    67  65  93 S5        30.06R                  
KISSIMMEE      CLOUDY    68  66  93 S3        30.07R                  
WINTER HAVEN   CLOUDY    72  69  90 SE3       30.06R                  
LAKELAND       CLOUDY    70  66  88 S5        30.05R                  
BARTOW         MOCLDY    68  68 100 CALM      30.05R                  
SEBRING        CLOUDY    71  70  98 S7        30.06R FOG              
OKEECHOBEE     MOCLDY    72  70  94 CALM      30.06R                  

$$
FLZ041-047-054-059-064-141-147-181300-
EAST CENTRAL FLORIDA
  
CITY           SKY/WX    TMP DP  RH WIND       PRES   REMARKS
ORMOND BEACH   PTCLDY    66  63  88 CALM      30.06                   
DAYTONA BEACH  MOCLDY    66  66 100 CALM      30.06R                  
DELAND         CLOUDY    66  64  94 CALM      30.06R                  
NEW SMYRNA BEA MOCLDY    66  64  94 CALM      30.07                   
JFK SPACE CTR  FAIR     N/A N/A N/A SW7       30.07R                  
TITUSVILLE     CLEAR     63  61  94 S6        30.07                   
CAPE CANAVERAL FAIR      68  66  94 S5        30.05R                  
PATRICK AFB    FAIR      70  70 100 S6        30.06R                  
MELBOURNE      FAIR      72  69  90 S8        30.05R                  
VERO BEACH     FAIR      72  70  93 S7        30.06R                  
FT PIERCE      FAIR      72  69  90 S6        30.06R                  
STUART         PTCLDY    73  70  88 S6        30.08R                  

STATION/POSITION SKY/WX   TEMP    WIND        PRES    WAVE   SWELL
                          AIR SEA DIR/SP/G            HT/PER HT/PER
                          (F)     (DEG/KT/KT) (MB)    (FT/S) (FT/S)
28.5N   80.2W              66     180/  4/  4 1018.2R   2/ 4   2/ 4
28.9N   78.5W              76 75  190/ 16/ 19 1018.7R   4/ 8   3/ 8
TRIDENT PIER               67 66  160/  6/  7 1019.0R
28.4N   80.5W                 65                N/A     2/ 4

$$
FLZ050-056-061-142-242-148-248-149-249-151-251-155-255-
160-260-181300-
WEST CENTRAL FLORIDA
  
CITY           SKY/WX    TMP DP  RH WIND       PRES   REMARKS
CRYSTAL RIVER  MOCLDY    68  64  88 CALM      30.04R                  
INVERNESS      FAIR      63  63 100 CALM      30.05R                  
BROOKSVILLE    CLOUDY    65  64  97 SE3       30.05R                  
CLEARWATER AIR CLOUDY    70  70 100 S5        30.03R                  
ST PETE CLEARW CLOUDY    71  69  93 S6        30.03R                  
TAMPA INTL     CLOUDY    72  69  90 S9        30.04R                  
TAMPA EXEC     CLOUDY    70  68  94 CALM      30.05R                  
PLANT CITY     CLOUDY    72  70  94 SE5       30.07R                  
MACDILL AFB    CLOUDY    70  68  92 S6        30.03R                  
PETER O KNIGHT CLOUDY   N/A N/A N/A S6        30.05R                  
ST PETERSBURG  CLOUDY    70  72 100 MISG      30.02                   
SARASOTA       CLOUDY    72  71  97 SE7       30.02R                  
VENICE         CLOUDY    75  75 100 S12       30.04R                  

STATION/POSITION SKY/WX   TEMP    WIND        PRES    WAVE   SWELL
                          AIR SEA DIR/SP/G            HT/PER HT/PER
                          (F)     (DEG/KT/KT) (MB)    (FT/S) (FT/S)
27.3N   84.2W                 71                N/A     4/ 7
CLEARWATER BEACH           74 68  150/  8/ 13 1016.9R
MIDDLE TAMPA BAY           70     180/  8/  9 1017.1R
VENICE                     74 68  150/ 11/ 14   N/A

$$
FLZ066-069-070-075>078-162-262-165-265-181300-
SOUTHWEST FLORIDA AND KEYS
  
CITY           SKY/WX    TMP DP  RH WIND       PRES   REMARKS
PUNTA GORDA    FAIR      70  69  97 SE7       30.05R FOG              
FT MYERS       MOCLDY    72  71  97 SE6       30.04R FOG              
SOUTHWEST INTL CLOUDY    71  71 100 S8        30.05R FOG              
NAPLES         CLOUDY    74  73  97 SE6       30.05R                  
MARCO ISLAND   CLOUDY    74  73  97 SE6       30.07R                  
IMMOKALEE      FOG       68  66  94 CALM      30.05R VSB<1/4          
MARATHON       FAIR      79  74  84 SE6       30.05R                  
KEY WEST NAS   FAIR      78  73  84 S8        30.05R                  
KEY WEST INTL  FAIR      78  74  87 S9        30.05R                  

STATION/POSITION SKY/WX   TEMP    WIND        PRES    WAVE   SWELL
                          AIR SEA DIR/SP/G            HT/PER HT/PER
                          (F)     (DEG/KT/KT) (MB)    (FT/S) (FT/S)
NAPLES                     76 71  130/  4/  6 1017.6R
26.0N   85.6W              79 79  180/ 14/ 17 1014.6R   5/ 7   3/ 7
DRY TORTUGAS               77     130/  9/ 10 1017.0R
SAND KEY                   77                 1017.3R
SOMBRERO KEY               78                 1017.0R
LONG KEY                   77 76  170/  8/  8 1016.9R
MOLASSES REEF              78 78  140/  7/  9 1017.6

$$
FLZ067-068-071>074-168-172>174-181300-
SOUTHEAST FLORIDA 
  
CITY           SKY/WX    TMP DP  RH WIND       PRES   REMARKS
W PALM BEACH   FAIR      75  71  87 S5        30.08R                  
BOCA RATON     PTCLDY    77  73  88 SE6       30.07                   
FT LAUDER-EXEC MOCLDY    76  74  93 SE5       30.07R                  
FT LAUDERDALE  FAIR      77  75  93 S6        30.07R                  
POMPANO BEACH  MOCLDY    77  73  87 S7        30.07R                  
PEMBROKE PINES FAIR      75  72  90 SE5       30.09R                  
OPA LOCKA      FAIR      75  72  90 S5        30.08R                  
MIAMI          FAIR      75  74  96 SE3       30.07R                  
WEST KENDALL   FAIR      75  73  93 SE3       30.07R                  
HOMESTEAD      FAIR      75  73  93 SE3       30.06R                  

STATION/POSITION SKY/WX   TEMP    WIND        PRES    WAVE   SWELL
                          AIR SEA DIR/SP/G            HT/PER HT/PER
                          (F)     (DEG/KT/KT) (MB)    (FT/S) (FT/S)
PORT EVERGLADES            77     160/  7/  9 1017.8
VIRGINIA KEY               77 77  150/  6/  8 1017.6R
LAKE WORTH                 77 76  210/ 12/ 14 1019.5R
FOWEY ROCKS                78 77  160/ 18/ 19 1018.1R
SETTLEMENT POINT           76     170/  8/ 10 1019.2R

$$